N7QNM-13 Weather Reports


time (UTC)temp
F
wind
direction
speed
knots
gust
knots
rain 1hr
in
rain 24hr
in
rain mn
in
humidity
%
barometer
mb
20260901125116 55 0.0 0.0 0.00 0.00 0.00 81 1006.6
20260901124136 55 0.0 0.0 0.00 0.00 0.00 80 1006.6
20260901123115 55 0.0 0.0 0.00 0.00 0.00 80 1006.6
20260901122116 55 0.0 0.0 0.00 0.00 0.00 79 1006.6
20260901121115 56 0.0 0.0 0.00 0.00 0.00 79 1006.6
20260901120115 56 0.0 0.0 0.00 0.00 0.00 78 1006.6
20260901115115 56 0.0 0.0 0.00 0.00 0.00 78 1006.7
20260901114115 56 0.0 0.0 0.00 0.00 0.00 78 1006.8
20260901113137 56 0.0 0.0 0.00 0.00 0.00 77 1006.7
20260901112115 56 0.0 0.0 0.00 0.00 0.00 77 1006.6
20260901111115 55 309 0.9 2.6 0.00 0.00 0.00 77 1006.7
20260901110115 55 338 0.0 1.7 0.00 0.00 0.00 77 1006.7
20260901105115 55 180 0.0 0.9 0.00 0.00 0.00 76 1006.7
20260901104118 54 152 0.0 2.6 0.00 0.00 0.00 75 1006.8
20260901103117 54 0.0 0.0 0.00 0.00 0.00 76 1007.0
20260901102116 54 0.0 0.0 0.00 0.00 0.00 76 1007.0
20260901101138 54 0.0 0.0 0.00 0.00 0.00 76 1007.0
20260901100116 54 0.0 0.0 0.00 0.00 0.00 76 1007.0
20260901095116 54 0.0 0.0 0.00 0.00 0.00 76 1007.1
20260901094116 55 0.0 0.0 0.00 0.00 0.00 74 1007.1
20260901093118 55 0.0 0.0 0.00 0.00 0.00 75 1007.1
20260901092018 55 180 0.0 1.7 0.00 0.00 0.00 74 1007.1
20260901091117 55 0.0 0.0 0.00 0.00 0.00 73 1007.1
20260901090159 56 0.0 0.0 0.00 0.00 0.00 73 1007.1
20260901085219 56 0.0 0.0 0.00 0.00 0.00 72 1007.1
20260901084118 57 0.0 0.0 0.00 0.00 0.00 70 1007.1
20260901083039 57 0.0 0.0 0.00 0.00 0.00 70 1007.2
20260901082018 58 0.0 0.0 0.00 0.00 0.00 71 1007.3
20260901081017 58 0.0 0.0 0.00 0.00 0.00 72 1007.4
20260901080119 58 0.0 0.0 0.00 0.00 0.00 72 1007.5
20260901075020 58 0.0 0.0 0.00 0.00 0.00 72 1007.5
20260901074018 59 0.0 0.0 0.00 0.00 0.00 72 1007.5
20260901073018 59 0.0 0.0 0.00 0.00 0.00 73 1007.5
20260901072018 58 180 0.0 1.7 0.00 0.00 0.00 73 1007.5
20260901071018 59 0.0 0.0 0.00 0.00 0.00 72 1007.5
20260901070018 59 332 0.0 1.7 0.00 0.00 0.00 71 1007.5
20260901065040 59 293 0.0 0.9 0.00 0.00 0.00 71 1007.6
20260901064020 59 293 0.9 1.7 0.00 0.00 0.00 69 1007.5
20260901063040 59 289 0.9 2.6 0.00 0.00 0.00 69 1007.5
20260901062019 59 261 0.9 1.7 0.00 0.00 0.00 69 1007.5
20260901061101 59 23 0.0 0.9 0.00 0.00 0.00 69 1007.6
20260901060019 59 235 1.7 2.6 0.00 0.00 0.00 69 1007.7
20260901055019 59 0.0 0.0 0.00 0.00 0.00 70 1007.8
20260901054021 59 0.0 0.0 0.00 0.00 0.00 71 1007.8
20260901053019 59 0.0 0.0 0.00 0.00 0.00 71 1007.8
20260901052019 59 0.0 0.0 0.00 0.00 0.00 70 1007.9
20260901051019 59 0.0 0.0 0.00 0.00 0.00 70 1007.8
20260901050040 59 0.0 0.0 0.00 0.00 0.00 68 1007.8
20260901045102 60 0.0 0.0 0.00 0.00 0.00 67 1007.8
20260901044042 60 0.0 0.0 0.00 0.00 0.00 64 1007.8
20260901043020 61 0.0 0.0 0.00 0.00 0.00 63 1007.8
20260901042022 62 0.0 0.0 0.00 0.00 0.00 61 1007.8
20260901041020 63 0.0 0.0 0.00 0.00 0.00 57 1007.8
20260901040020 64 0.0 0.0 0.00 0.00 0.00 57 1007.8
20260901035041 64 0.0 0.0 0.00 0.00 0.00 55 1007.7
20260901034022 65 0.0 0.0 0.00 0.00 0.00 54 1007.7
20260901033042 67 0.0 0.0 0.00 0.00 0.00 52 1007.7
20260901032021 69 0.0 0.0 0.00 0.00 0.00 49 1007.6
20260901031021 71 0.0 0.0 0.00 0.00 0.00 45 1007.5
20260901030021 72 195 1.7 2.6 0.00 0.00 0.00 40 1007.4
20260901025021 73 197 0.9 2.6 0.00 0.00 0.00 39 1007.4
20260901024043 75 204 0.9 2.6 0.00 0.00 0.00 41 1007.4
20260901023023 77 186 1.7 1.7 0.00 0.00 0.00 37 1007.4
20260901022022 79 218 0.9 2.6 0.00 0.00 0.00 37 1007.4
20260901021021 81 244 0.9 1.7 0.00 0.00 0.00 37 1007.4
20260901020022 82 231 0.9 3.5 0.00 0.00 0.00 35 1007.3
20260901015043 83 202 0.9 2.6 0.00 0.00 0.00 33 1007.3
20260901014022 84 270 2.6 3.5 0.00 0.00 0.00 34 1007.4
20260901013022 85 266 2.6 3.5 0.00 0.00 0.00 33 1007.5
20260901012024 88 247 1.7 2.6 0.00 0.00 0.00 30 1007.6
20260901011023 90 293 0.9 1.7 0.00 0.00 0.00 26 1007.6
20260901010044 90 290 1.7 2.6 0.00 0.00 0.00 26 1007.6
20260901005024 88 282 2.6 3.5 0.00 0.00 0.00 27 1007.7
20260901004023 87 357 1.7 4.3 0.00 0.00 0.00 25 1007.8
20260901003023 88 10 4.3 6.1 0.00 0.00 0.00 26 1008.0
20260901002024 87 87 1.7 3.5 0.00 0.00 0.00 25 1008.0
20260901001024 87 49 2.6 4.3 0.00 0.00 0.00 26 1008.2
20260901000025 88 25 1.7 2.6 0.00 0.00 0.00 27 1008.4
20260831235023 87 47 1.7 2.6 0.00 0.00 0.00 26 1008.5
20260831234025 87 353 2.6 5.2 0.00 0.00 0.00 25 1008.6
20260831232024 87 9 3.5 7.0 0.00 0.00 0.00 26 1008.9
20260831231025 87 16 1.7 3.5 0.00 0.00 0.00 27 1009.1
20260831230025 86 68 2.6 5.2 0.00 0.00 0.00 27 1009.2
20260831225024 86 52 1.7 2.6 0.00 0.00 0.00 28 1009.4
20260831224024 86 68 1.7 3.5 0.00 0.00 0.00 28 1009.5
20260831223026 85 96 2.6 4.3 0.00 0.00 0.00 28 1009.6
20260831222025 85 127 1.7 3.5 0.00 0.00 0.00 28 1009.8
20260831221025 85 130 2.6 5.2 0.00 0.00 0.00 28 1010.0
20260831220026 84 72 2.6 6.1 0.00 0.00 0.00 30 1010.2
20260831215025 84 7 3.5 6.1 0.00 0.00 0.00 30 1010.3
20260831214026 84 47 2.6 5.2 0.00 0.00 0.00 30 1010.4
20260831213027 84 54 3.5 6.1 0.00 0.00 0.00 30 1010.6
20260831212025 85 351 3.5 4.3 0.00 0.00 0.00 28 1010.7
20260831211107 86 340 2.6 6.1 0.00 0.00 0.00 29 1010.9
20260831210025 86 333 3.5 5.2 0.00 0.00 0.00 29 1010.9
20260831205025 85 335 3.5 5.2 0.00 0.00 0.00 29 1011.1
20260831204026 84 231 2.6 4.3 0.00 0.00 0.00 32 1011.3
20260831203026 83 284 3.5 5.2 0.00 0.00 0.00 32 1011.5
20260831202026 83 354 2.6 5.2 0.00 0.00 0.00 31 1011.7
20260831201026 83 216 1.7 3.5 0.00 0.00 0.00 32 1011.9
20260831200028 82 346 2.6 4.3 0.00 0.00 0.00 33 1012.1
20260831195027 82 283 1.7 3.5 0.00 0.00 0.00 33 1012.2
20260831194028 81 35 2.6 3.5 0.00 0.00 0.00 33 1012.4
20260831193027 81 89 1.7 3.5 0.00 0.00 0.00 35 1012.6
20260831192027 80 141 0.9 3.5 0.00 0.00 0.00 36 1012.9
20260831191027 79 103 2.6 3.5 0.00 0.00 0.00 36 1013.1
20260831190027 79 121 2.6 3.5 0.00 0.00 0.00 36 1013.2
20260831185027 79 144 2.6 4.3 0.00 0.00 0.00 36 1013.4
20260831184028 78 21 1.7 2.6 0.00 0.00 0.00 36 1013.6
20260831183028 77 241 1.7 2.6 0.00 0.00 0.00 37 1013.7
20260831182029 77 164 1.7 2.6 0.00 0.00 0.00 36 1013.7
20260831181027 76 344 1.7 3.5 0.00 0.00 0.00 36 1013.9
20260831180027 75 205 1.7 2.6 0.00 0.00 0.00 37 1014.0
20260831175029 75 284 2.6 4.3 0.00 0.00 0.00 38 1014.2
20260831174029 74 257 2.6 3.5 0.00 0.00 0.00 40 1014.2
20260831173028 73 274 2.6 4.3 0.00 0.00 0.00 42 1014.3
20260831172028 72 286 2.6 3.5 0.00 0.00 0.00 41 1014.4
20260831171028 72 266 2.6 3.5 0.00 0.00 0.00 42 1014.4
20260831170028 72 313 1.7 2.6 0.00 0.00 0.00 42 1014.5
20260831165029 71 272 2.6 3.5 0.00 0.00 0.00 42 1014.6
20260831164030 70 267 0.9 2.6 0.00 0.00 0.00 42 1014.7
20260831163029 69 349 2.6 2.6 0.00 0.00 0.00 44 1014.8
20260831162031 69 288 1.7 2.6 0.00 0.00 0.00 46 1014.9
20260831161030 67 276 0.9 1.7 0.00 0.00 0.00 51 1015.0
20260831160029 64 0.0 0.0 0.00 0.00 0.00 54 1015.1
20260831155031 62 281 0.9 2.6 0.00 0.00 0.00 61 1015.0
20260831154031 60 281 1.7 1.7 0.00 0.00 0.00 63 1015.1
20260831153031 60 270 0.9 1.7 0.00 0.00 0.00 61 1015.1
20260831152031 60 0.0 0.0 0.00 0.00 0.00 60 1015.1
20260831151030 60 0.0 0.0 0.00 0.00 0.00 62 1015.1
20260831150030 59 0.0 0.0 0.00 0.00 0.00 68 1015.2
20260831145050 57 0.0 0.0 0.00 0.00 0.00 78 1015.1
20260831144030 55 0.0 0.0 0.00 0.00 0.00 81 1015.0
20260831143052 53 0.0 0.0 0.00 0.00 0.00 83 1015.0
20260831142032 50 0.0 0.0 0.00 0.00 0.00 85 1015.0
20260831141053 48 0.0 0.0 0.00 0.00 0.00 86 1014.9
20260831140032 46 0.0 0.0 0.00 0.00 0.00 86 1014.9
20260831135032 46 0.0 0.0 0.00 0.00 0.00 86 1014.8
20260831134030 45 0.0 0.0 0.00 0.00 0.00 85 1014.8
20260831133032 44 0.0 0.0 0.00 0.00 0.00 85 1014.8
20260831132031 44 0.0 0.0 0.00 0.00 0.00 85 1014.7
20260831131532 44 0.0 0.0 0.00 0.00 0.00 84 1014.7
20260831130531 44 0.0 0.0 0.00 0.00 0.00 84 1014.7